Frankfort, KY

10:36 PM EST on December 14, 2017 (GMT -0500)
Capital City

Weather History for KFFT - September, 2013

Change the Weather History Date:

Thursday, September 19, 2013

  Actual Average Record
Temperature  
Mean Temperature 73 °F 66 °F  
Max Temperature 81 °F 78 °F 98 °F (1953)
Min Temperature 64 °F 54 °F 37 °F (1916)
Degree Days  
Heating Degree Days 0 2  
Month to date heating degree days 11 13  
Since 1 July heating degree days 15 14  
Cooling Degree Days 8 3  
Month to date cooling degree days 129 106  
Year to date cooling degree days 1065 1108  
Growing Degree Days 22 (Base 50)    
Moisture  
Dew Point 66 °F    
Average Humidity 85    
Maximum Humidity 100    
Minimum Humidity 69    
Precipitation  
Precipitation 0.10 in 0.09 in 1.17 in (1966)
Month to date precipitation 0.24 2.15  
Year to date precipitation 35.30 33.46  
Sea Level Pressure  
Sea Level Pressure 30.09 in    
Wind  
Wind Speed 6 mph (SSW)    
Max Wind Speed 12 mph    
Max Gust Speed 25 mph    
Visibility 7 miles    
Events Rain    
T = Trace of Precipitation, MM = Missing Value Source: NWS Daily Summary

Daily Weather History Graph

Daily Weather History Graph

Search for Another Location

Airport or City:

Trip Planner

Search our weather history database for the weather conditions in past years. The results will help you decide how hot, cold, wet, or windy it might be!

Date:

Astronomy

Sep. 19, 2013 Rise Set
Actual Time 7:24 AM EDT 7:40 PM EDT
Civil Twilight 6:58 AM EDT 8:07 PM EDT
Nautical Twilight 6:27 AM EDT 8:38 PM EDT
Astronomical Twilight 5:56 AM EDT 9:09 PM EDT
Moon 7:39 PM EDT (9/19) 7:32 AM EDT (9/19)
Length of Visible Light 13h 08m
Length of Day
12h 15m
Full, 100% of the Moon is Illuminated
Sep 19
Full
Sep 26
Last Quarter
Oct 4
New
Oct 11
First Quarter
Oct 18
Full

Hourly Weather History & Observations

Time (EDT) Temp. Heat Index Dew Point Humidity Pressure Visibility Wind Dir Wind Speed Gust Speed Precip Events Conditions
12:34 AM 68.0 °F - 64.4 °F 88% 30.10 in 10.0 mi South 3.5 mph - N/A   Partly Cloudy
12:53 AM 66.9 °F - 64.0 °F 90% 30.09 in 10.0 mi South 4.6 mph - N/A   Clear
1:53 AM 66.0 °F - 64.0 °F 93% 30.08 in 8.0 mi South 4.6 mph - N/A   Clear
2:53 AM 64.9 °F - 64.0 °F 97% 30.08 in 8.0 mi South 3.5 mph - N/A   Clear
3:53 AM 64.9 °F - 64.0 °F 97% 30.08 in 7.0 mi South 4.6 mph - N/A   Clear
4:53 AM 64.0 °F - 63.0 °F 96% 30.07 in 7.0 mi South 5.8 mph - N/A   Clear
5:53 AM 64.0 °F - 63.0 °F 96% 30.07 in 6.0 mi SSW 4.6 mph - N/A   Clear
6:53 AM 64.0 °F - 63.0 °F 96% 30.09 in 6.0 mi SSW 5.8 mph - 0.01 in   Clear
7:53 AM 66.0 °F - 64.0 °F 93% 30.09 in 6.0 mi SSW 5.8 mph - N/A   Clear
8:53 AM 68.0 °F - 64.9 °F 90% 30.11 in 7.0 mi SW 6.9 mph - N/A   Clear
9:53 AM 69.1 °F - 64.9 °F 87% 30.12 in 8.0 mi SW 5.8 mph - N/A   Mostly Cloudy
10:27 AM 69.8 °F - 64.4 °F 83% 30.16 in 8.0 mi NW 6.9 mph - N/A   Overcast
10:49 AM 69.8 °F - 64.4 °F 83% 30.16 in 7.0 mi Calm Calm - N/A   Overcast
10:53 AM 69.1 °F - 64.9 °F 87% 30.14 in 7.0 mi Calm Calm - N/A   Overcast
11:05 AM 68.0 °F - 66.2 °F 94% 30.16 in 1.8 mi NW 3.5 mph - 0.04 in Rain Rain
11:08 AM 68.0 °F - 66.2 °F 94% 30.16 in 0.8 mi West 3.5 mph - 0.07 in Rain Heavy Rain
11:16 AM 68.0 °F - 66.2 °F 94% 30.15 in 1.2 mi SSW 3.5 mph - 0.08 in Rain Light Rain
11:19 AM 68.0 °F - 66.2 °F 94% 30.15 in 3.0 mi SSW 4.6 mph - 0.08 in Rain Light Rain
11:53 AM 69.1 °F - 66.9 °F 93% 30.13 in 5.0 mi SSW 4.6 mph - 0.08 in   Mostly Cloudy
12:04 PM 69.8 °F - 66.2 °F 88% 30.14 in 5.0 mi SSW 4.6 mph - N/A   Mostly Cloudy
12:53 PM 71.1 °F - 68.0 °F 90% 30.10 in 5.0 mi SSW 6.9 mph - 0.01 in Rain Light Rain
1:53 PM 73.9 °F - 68.0 °F 82% 30.10 in 7.0 mi WSW 6.9 mph - 0.00 in   Partly Cloudy
2:19 PM 73.4 °F - 68.0 °F 83% 30.10 in 7.0 mi SW 8.1 mph - N/A   Mostly Cloudy
2:43 PM 73.4 °F - 68.0 °F 83% 30.08 in 7.0 mi SW 10.4 mph - N/A   Mostly Cloudy
2:53 PM 73.9 °F - 69.1 °F 85% 30.06 in 7.0 mi SW 9.2 mph - N/A   Mostly Cloudy
3:53 PM 77.0 °F - 69.1 °F 76% 30.04 in 9.0 mi SW 9.2 mph - N/A   Partly Cloudy
4:53 PM 80.1 °F 82.9 °F 69.1 °F 69% 30.04 in 9.0 mi SW 9.2 mph - N/A   Partly Cloudy
5:53 PM 79.0 °F - 69.1 °F 72% 30.03 in 9.0 mi Variable 3.5 mph - N/A   Clear
6:53 PM 78.1 °F - 69.1 °F 74% 30.02 in 9.0 mi South 4.6 mph - N/A   Clear
7:53 PM 75.0 °F - 69.1 °F 82% 30.01 in 9.0 mi SE 4.6 mph - N/A   Clear
8:53 PM 73.0 °F - 69.1 °F 87% 30.01 in 8.0 mi SSE 4.6 mph - N/A   Scattered Clouds
9:53 PM 73.0 °F - 69.1 °F 87% 30.00 in 8.0 mi South 5.8 mph - N/A   Clear
10:53 PM 72.0 °F - 68.0 °F 87% 30.00 in 8.0 mi South 6.9 mph - N/A   Clear
11:53 PM 71.1 °F - 68.0 °F 90% 30.01 in 8.0 mi South 5.8 mph - N/A   Clear